Location: Briis
(48.6240°N, 2.1211°E)
Time: 07:18:26
(UTC+00:00)

Cosmos 921 Rocket - Pass Details

Date: 25 September 2020
Orbit: 572 x 632 km, 75.8° (Epoch: 22 October)

Event Time Altitude Azimuth Distance (km) Brightness Sun altitude
Exits shadow 03:05:08 52° 11° (NNE) 716 3.5 -25.7°
Drops below altitude 10° 03:08:23 10° 19° (NNE) 1,896 6.2 -25.2°
Sets 03:10:36 0° 20° (NNE) 2,805 7.2 -24.9°
